SCP
0 0 0 0 0 0 0 0 0 0 0 0 0 0 0 0 0 0 0 0 -0 -0 0 0 0 0 0 0 0 0 0 0 0 0 0 0 0 0 0 0 0 0 0
0 0 0 0 0 0 0 0 0 0 0 0 0 0 0 0 0 0 0 0 0 0 0 0 0 0 0 0 0 0 0 0 0 0 0 0 0 0 0 0 0 0 0
0 0 0 0 0 0 0 0 0 0 0 0 0 0 0 0 0 0 0 0 0 0 0 0 0 0 0 0 0 0 0 0 0 0 0 0 0 0 0 0 0 0 0
0 0 0 0 0 0 0 0 0 0 0 0 0 0 0 0 0 0 0 0 0 0 0 0 0 0 0 0 0 0 0 0 0 0 0 0 0 0 0 0 0 0 0
0 0 0 0 0 0 0 0 0 0 0 0 0 0 0 0 0 0 0 0 0 0 0 0 0 0 0 0 0 0 0 0 0 0 0 0 0 0 0 0 0 0 0
0 0 0 0 0 0 0 0 0 0 0 0 0 0 0 0 0 0 0 0 0 0 0 0 0 0 0 0 0 0 0 0 0 0 0 0 0 0 0 0 0 0 0
0 0 0 0 0 0 0 0 0 0 0 0 0 0 0 0 0 0 0 0 0 0 0 0 0 0 0 0 0 0 0 0 0 0 0 0 0 0 0 0 0 0 0
0 0 0 0 0 0 0 0 0 0 0 0 0 0 0 0 0 0 0 0 0 0 0 0 0 0 0 0 0 0 0 0 0 0 0 0 0 0 0 0 0 0 0
0 0 0 0 0 0 0 0 0 0 0 0 0 0 0 0 0 0 0 0 0 0 0 0 0 0 0 0 0 0 0 0 0 0 0 0 0 0 0 0 0 0 0
0 0 0 0 0 0 0 0 0 0 0 0 0 0 0 0 0 0 0 0 0 0 0 0 0 0 0 0 0 0 0 0 0 0 0 0 0 0 0 0 0 0 0
0 0 0 0 0 0 0 0 0 0 0 0 0 0 0 0 0 0 0 0 0 0 0 0 0 0 0 0 0 0 0 0 0 0 0 0 0 0 0 0 0 0 0
0 0 0 0 0 0 0 0 0 0 0 0 0 0 0 0 0 0 0 0 0 0 0 0 0 0 0 0 0 0 0 0 0 0 0 0 0 0 0 0 0 0 0
0 0 0 0 0 0 0 0 0 0 0 0 0 0 0 0 0 0 0 0 0 0 0 0 0 0 0 0 0 0 0 0 0 0 0 0 0 0 0 0 0 0 0
0 0 0 0 0 0 0 0 0 0 0 0 0 0 0 0 0 0 0 0 0 0 0 0 0 0 0 0 0 0 0 0 0 0 0 0 0 0 0 0 0 0 0
0 0 0 0 0 0 0 0 0 0 0 0 0 0 0 0 0 0 0 0 0 0 0 0 0 0 0 0 0 0 0 0 0 0 0 0 0 0 0 0 0 0 0
0 0 0 0 0 0 0 0 0 0 0 0 0 0 0 0 0 0 0 0 0 0 0 0 0 0 0 0 0 0 0 0 0 0 0 0 0 0 0 0 0 0 0
0 0 0 0 0 0 0 0 0 0 0 0 0 0 0 0 0 0 0 0 0 0 0 0 0 0 0 0 0 0 0 0 0 0 0 0 0 0 0 0 0 0 0
0 0 0 0 0 0 0 0 0 0 0 0 0 0 0 0 0 0 0 0 0 0 0 0 0 0 0 0 0 0 0 0 0 0 0 0 0 0 0 0 0 0 0
0 0 0 0 0 0 0 0 0 0 0 0 0 0 0 0 0 0 0 0 0 0 0 0 0 0 0 0 0 0 0 0 0 0 0 0 0 0 0 0 0 0 0
0 0 0 0 0 0 0 0 0 0 0 0 0 0 0 0 0 0 0 0 0 0 0 0 0 0 0 0 0 0 0 0 0 0 0 0 0 0 0 0 0 0 0
0 0 0 0 0 0 0 0 0 0 0 0 0 0 0 0 0 0 0 0 0 0 0 0 0 0 0 0 0 0 0 0 0 0 0 0 0 0 0 0 0 0 0
0 0 0 0 0 0 0 0 0 0 0 0 0 0 0 0 0 0 0 0 0 0 0 0 0 0 0 0 0 0 0 0 0 0 0 0 0 0 0 0 0 0 0
0 0 0 0 0 0 0 0 0 0 0 0 0 0 0 0 0 0 0 0 0 0 0 0 0 0 0 0 0 0 0 0 0 0 0 0 0 0 0 0 0 0 0
0 0 0 0 0 0 0 0 0 0 0 0 0 0 0 0 0 0 0 0 0 0 0 0 0 0 0 0 0 0 0 0 0 0 0 0 0 0 0 0 0 0 0
0 0 0 0 0 0 0 0 0 0 0 0 0 0 0 0 0 0 0 0 0 0 0 0 0 0 0 0 0 0 0 0 0 0 0 0 0 0 0 0 0 0 0
0 0 0 0 0 0 0 0 0 0 0 0 0 0 0 0 0 0 0 0 0 0 0 0 0 0 0 0 0 0 0 0 0 0 0 0 0 0 0 0 0 0 0
Wind_Speed
6 6 5 5 4 4 4 4 3 3 3 3 3 3 3 3 4 3 2 3 3 3 3 3 3 2 2 1 1 1 1 1 0 1 1 1 1 2 2 2 2 2 3
6 6 6 5 5 5 5 5 4 4 4 3 3 3 3 3 3 3 3 2 2 2 2 2 2 2 1 1 1 1 1 2 1 1 0 1 1 2 3 3 3 2 2
6 6 6 6 6 5 5 5 5 5 4 4 4 4 4 3 3 3 3 2 2 2 1 1 1 1 1 1 0 0 1 1 2 1 1 1 1 2 2 2 2 2 2
7 7 6 6 6 5 5 5 5 4 4 4 4 4 4 4 4 3 3 2 2 2 1 1 1 1 1 0 0 0 1 1 1 2 2 1 2 2 3 3 2 2 2
7 7 6 6 5 5 5 5 4 4 4 4 4 4 3 3 3 3 3 3 3 3 3 2 1 1 2 2 2 2 1 1 1 2 2 2 2 2 3 3 3 3 2
8 7 6 6 5 5 5 5 5 4 4 4 4 4 4 3 3 2 4 4 4 4 3 3 3 3 3 3 1 2 4 3 3 3 3 3 3 3 3 4 4 4 4
8 7 6 6 6 6 6 5 5 5 4 4 4 4 4 4 5 5 6 5 4 3 3 3 2 2 3 4 4 6 4 4 5 5 4 4 4 4 5 5 5 5 5
8 7 7 7 6 6 6 6 6 5 5 5 5 4 4 3 5 5 6 6 4 4 4 4 4 3 3 3 3 4 3 3 4 5 5 5 5 5 5 6 6 7 6
8 8 7 7 7 7 7 7 6 5 5 5 5 5 5 5 6 6 6 5 4 5 4 4 4 4 1 3 4 4 4 4 3 4 4 5 4 5 6 5 5 6 6
8 8 8 7 7 7 7 6 6 5 5 5 5 5 6 5 5 6 8 5 5 4 4 4 3 4 2 4 5 5 6 5 5 4 6 7 7 6 7 7 6 6 6
7 7 7 7 7 7 6 5 5 5 5 5 5 5 5 5 6 7 7 5 4 4 4 4 3 4 5 6 7 6 6 6 6 6 5 5 5 5 5 6 6 6 7
6 6 6 6 6 5 6 5 5 5 5 5 5 5 4 4 4 6 7 7 5 5 4 4 2 4 6 7 7 6 6 7 6 5 5 5 5 5 5 5 6 7 7
6 6 6 6 5 5 6 6 5 5 5 5 4 4 4 4 4 6 7 7 7 5 4 2 2 4 6 6 7 8 7 6 6 6 6 6 5 6 5 5 7 7 9
6 6 6 6 5 5 4 4 4 5 5 4 4 4 4 4 4 4 4 5 6 6 5 4 5 6 7 6 6 6 6 5 6 6 6 6 5 5 5 5 6 6 7
6 5 5 5 5 5 4 3 4 4 3 4 4 4 4 4 3 2 3 4 4 4 4 4 5 5 5 5 5 5 5 6 6 6 6 6 6 6 6 6 6 7 7
5 5 4 4 4 4 4 3 1 1 2 2 2 3 3 2 1 3 4 4 4 4 5 5 6 6 6 6 6 6 6 6 6 6 6 7 7 7 7 6 6 7 8
5 4 4 4 4 4 4 4 4 3 2 2 3 3 3 2 3 4 5 5 5 6 6 6 6 6 6 6 6 6 6 6 6 6 7 7 7 7 7 7 7 7 8
4 3 4 4 4 4 4 4 3 3 3 3 3 4 4 3 3 4 4 5 4 5 6 6 6 6 6 6 6 6 6 6 6 7 7 7 7 7 8 8 8 9 9
3 3 3 3 3 3 3 3 3 3 3 2 2 3 4 4 4 4 5 4 4 5 5 6 6 6 6 6 6 7 7 7 7 7 7 8 7 8 8 8 9 10 10
2 3 3 3 3 3 3 3 3 3 3 3 3 2 2 3 3 3 4 4 5 5 5 5 5 6 6 6 6 6 7 7 8 8 7 7 8 8 9 10 9 9 9
2 3 4 3 3 3 3 3 3 3 3 3 3 2 2 3 4 4 4 4 4 5 5 5 5 6 6 6 6 7 9 8 7 7 8 8 8 8 9 9 9 10 10
2 3 3 3 3 3 3 3 3 3 3 3 2 2 4 4 3 3 3 4 4 4 5 5 5 5 5 5 6 7 7 8 7 7 8 8 8 9 9 9 9 9 10
3 3 3 2 2 3 3 3 3 3 3 3 2 2 3 3 3 3 4 4 4 4 4 4 5 5 5 5 6 6 7 7 7 8 8 9 9 9 9 10 11 11 11
2 3 3 2 2 3 3 3 3 3 3 3 3 3 3 3 3 4 4 3 3 4 4 4 5 6 8 6 5 6 6 6 8 8 10 10 10 10 9 10 11 12 11
2 2 2 2 2 2 2 3 3 3 3 3 3 3 3 3 4 4 3 3 4 4 5 5 4 5 7 9 8 7 6 7 8 8 9 9 11 11 11 11 10 11 11
2 2 2 1 2 2 2 2 2 2 2 2 3 3 3 3 3 4 3 3 4 4 5 5 6 7 8 8 8 8 8 9 10 11 10 9 10 9 10 9 11 11 11
Wind_Direction
191 188 187 189 190 192 195 188 190 182 179 180 176 168 152 146 140 135 127 121 120 116 116 108 99 74 75 70 54 45 29 6 73 70 59 37 29 1 10 354 359 356 47
189 186 186 180 184 192 191 191 190 186 188 191 182 181 165 160 157 152 150 139 130 118 116 121 113 109 83 40 17 42 32 348 318 306 67 359 347 350 343 338 344 359 18
185 187 186 186 189 194 193 188 192 193 192 194 194 191 181 179 173 173 174 169 165 156 164 164 145 141 144 108 321 23 17 345 314 292 322 347 326 336 324 320 330 337 340
184 189 192 193 194 195 190 188 191 193 196 197 195 194 191 190 190 186 192 198 197 193 200 213 232 248 286 267 242 303 296 283 290 290 299 311 316 319 308 312 313 321 325
186 192 196 194 190 190 181 188 188 191 200 196 192 193 192 201 207 210 203 211 212 205 202 210 205 25 12 342 327 315 289 272 266 274 279 287 293 303 312 310 309 308 308
190 191 189 192 185 187 187 186 184 186 195 189 195 196 199 202 161 214 244 223 216 216 218 215 188 195 184 198 254 314 317 294 290 279 279 286 298 301 304 299 306 307 308
192 188 185 187 185 189 188 185 187 186 186 191 198 199 207 190 174 202 228 242 232 235 234 223 217 204 218 215 201 214 227 250 272 282 283 291 296 305 298 294 296 298 302
192 189 187 189 187 187 189 191 197 196 188 196 200 204 211 196 182 203 218 232 236 235 236 237 231 227 230 248 240 244 248 237 243 253 271 285 296 299 289 291 295 289 283
192 193 190 191 190 190 192 197 198 198 197 200 202 207 211 203 186 202 218 226 231 232 231 239 244 238 198 246 248 250 252 247 232 246 277 282 290 290 288 279 280 281 286
195 198 193 192 191 195 200 201 195 198 204 205 205 215 218 220 180 197 223 227 232 231 225 223 223 239 216 239 247 253 257 261 261 246 241 241 250 244 242 257 271 277 286
193 193 192 190 194 196 198 198 197 198 203 210 209 214 219 223 186 192 219 235 236 238 233 230 218 198 220 237 255 260 270 280 270 267 266 263 260 259 252 253 258 263 272
181 184 188 188 187 189 191 197 199 197 201 207 212 214 217 212 216 200 210 229 258 248 247 245 227 200 226 239 246 258 268 270 267 265 264 264 264 265 264 265 265 262 263
177 183 185 185 185 187 188 190 194 200 208 211 214 219 217 213 199 200 208 219 236 248 253 258 246 225 232 236 235 246 250 253 258 262 266 270 273 276 276 271 267 264 265
180 182 182 183 182 184 188 193 196 201 209 214 215 222 224 219 221 208 208 213 217 231 241 232 228 236 240 251 247 238 244 253 260 264 270 273 276 274 271 271 271 271 268
184 181 183 183 183 186 186 195 207 207 217 224 225 227 230 230 230 245 237 229 232 236 243 242 244 241 243 246 250 252 250 248 251 258 266 270 270 270 269 267 268 270 269
184 181 180 179 180 184 184 180 154 220 192 224 275 272 244 254 222 210 231 249 252 240 244 246 248 251 254 257 258 258 254 255 259 262 265 268 270 271 272 270 265 265 269
189 179 177 182 182 187 191 193 187 174 172 189 211 234 254 244 223 221 223 228 233 227 241 251 254 256 259 261 261 262 263 264 266 265 265 266 267 269 270 271 269 268 270
187 175 179 184 188 191 195 201 202 198 194 199 195 204 216 221 222 224 222 220 227 227 248 257 261 262 262 263 263 263 264 264 262 263 265 267 268 269 269 270 269 271 275
185 180 183 187 192 194 195 200 206 212 215 215 205 187 200 209 209 214 211 237 250 250 253 260 265 266 266 267 267 266 265 266 266 265 265 266 268 269 270 270 272 272 271
182 167 184 190 192 193 196 202 209 214 219 222 224 226 196 215 234 229 232 249 256 261 265 267 269 272 272 269 269 268 267 266 267 266 268 268 268 269 270 271 272 273 272
184 170 179 196 197 199 205 211 216 221 228 231 234 226 234 234 240 244 245 249 258 266 271 274 275 275 276 277 274 272 273 273 272 273 272 271 270 269 269 269 270 270 273
190 187 190 198 200 204 212 219 223 227 232 237 242 213 211 241 248 252 256 263 267 272 278 279 279 281 281 281 282 280 277 277 278 278 277 276 272 270 270 270 270 272 273
193 190 191 197 202 196 211 219 223 231 237 238 239 237 227 244 252 259 266 271 273 277 280 280 283 286 289 288 287 286 283 282 284 286 284 280 276 274 272 271 271 273 274
196 198 199 200 202 208 214 221 225 231 239 242 242 243 245 248 256 264 272 276 278 279 282 283 283 284 287 290 290 289 292 301 300 289 283 281 279 275 273 272 272 272 273
193 198 206 209 209 215 223 231 237 239 242 247 250 252 255 258 262 267 270 273 277 279 282 283 281 284 286 289 289 293 306 305 296 295 290 282 277 274 273 273 273 274 274
191 201 216 223 228 232 236 241 245 249 252 256 261 266 270 272 273 275 278 280 284 284 285 285 287 292 293 291 294 300 298 291 288 287 287 282 278 274 276 277 277 275 274